Miscellaneous Local Product
Issued by NWS Hastings, NE

Home | Current Version | Previous Version | Text Only | Print | Product List | Glossary Off
Versions: 1 2 3 4 5 6 7 8 9 10 11 12 13 14 15 16 17 18 19 20 21 22 23 24 25 26 27 28 29 30 31 32 33 34 35 36 37 38 39 40 41 42 43 44 45 46 47 48 49 50

867
AXUS43 KGID 110402
MISGRI

GID CWA HOURLY WEATHER ROUNDUP
NATIONAL WEATHER SERVICE HASTINGS NE
1000 PM CST SUN DEC 10 2017

NOTE: "FAIR" INDICATES FEW OR NO CLOUDS BELOW 12,000 FEET WITH NO
SIGNIFICANT WEATHER AND/OR OBSTRUCTIONS TO VISIBILITY.

...SOUTH CENTRAL NEBRASKA...

CITY           SKY/WX    TMP DP  RH WIND       PRES   REMARKS
GRAND ISLAND   CLEAR     39  15  37 W10       30.10F WCI  32
KEARNEY        CLEAR     45  12  26 W10       30.13F
HASTINGS       CLEAR     39  13  34 W7        30.11F WCI  34
ORD            CLOUDY    36  13  38 NW6       30.08F WCI  31
YORK           CLEAR     37  16  41 W10       30.09F WCI  30
AURORA         CLEAR     37  14  39 W12       30.09F WCI  29
LEXINGTON      CLOUDY    32  14  47 W8        30.14F WCI  25
HOLDREGE       CLEAR     41  14  32 W10       30.14F
HEBRON         CLEAR     34  16  48 CALM      30.12S

...NEBRASKA PANHANDLE...

CITY           SKY/WX    TMP DP  RH WIND       PRES   REMARKS
CHADRON        MOCLDY    45  14  28 W8        30.19F
ALLIANCE       CLOUDY    26  10  50 W13       30.21F WCI  15
SCOTTSBLUFF    CLOUDY    36   9  32 W13       30.26F WCI  27
SIDNEY         CLOUDY    39   7  26 W14       30.27S WCI  31

...WESTERN AND NORTH CENTRAL NEBRASKA...

CITY           SKY/WX    TMP DP  RH WIND       PRES   REMARKS
VALENTINE      CLEAR     38  18  44 W10       30.10S WCI  31
AINSWORTH      CLOUDY    41  18  40 W13       30.08F
ONEILL         CLOUDY    41  20  43 W8        30.04F
BROKEN BOW     CLOUDY    37  12  35 W8        30.11F WCI  31
IMPERIAL       CLEAR     37   4  25 W10       30.22F WCI  30
NORTH PLATTE   CLOUDY    29  15  56 NW7       30.17F WCI  22
MCCOOK         CLOUDY    38   9  30 W7        30.19F WCI  33

...EASTERN NEBRASKA...

CITY           SKY/WX    TMP DP  RH WIND       PRES   REMARKS
NORFOLK        CLOUDY    38  20  48 SW6       30.02F WCI  33
SO SIOUX CITY  PTCLDY    31  23  72 E3        30.02F
TEKAMAH        CLOUDY    25  13  60 S7        30.05F WCI  17
COLUMBUS       CLOUDY    33  19  56 W3        30.06F
ALBION         CLOUDY    42  16  34 NW7       30.06F
OMAHA EPPLEY   CLOUDY    31  24  75 SE6       30.06F WCI  25
OFFUTT AFB     CLOUDY    24  20  82 CALM      30.06F
MILLARD        CLOUDY    32  25  76 CALM      30.07F
LINCOLN        CLEAR     32  18  56 CALM      30.08F
NEBRASKA CITY  CLEAR     38  22  53 SW9       30.08F WCI  31
BEATRICE       CLOUDY    29  17  62 CALM      30.09F
FALLS CITY     CLEAR     31  20  63 NE3       30.10F

...NORTHERN KANSAS...

CITY           SKY/WX    TMP DP  RH WIND       PRES   REMARKS
GOODLAND       CLEAR     36   2  23 W12       30.26S WCI  28
HILL CITY      CLEAR     40  12  32 W12       30.20S WCI  33
NORTON         CLEAR     34   3  27 SW9       30.18S WCI  26
PHILLIPSBURG   CLEAR     39   9  28 W7        30.17F WCI  34
SMITH CENTER   PTCLDY    34  12  40 W7        30.17S WCI  28
HAYS           CLEAR     39  12  33 W6        30.20S WCI  35
RUSSELL        CLEAR     38  16  40 SW12      30.18R WCI  30
CONCORDIA      CLEAR     45  16  31 SW9       30.13S
SALINA         CLEAR     48  18  30 SW10      30.17S
TOPEKA         CLEAR     31  22  69 CALM      30.13F



USA.gov is the U.S. government's official web portal to all federal, state and local government web resources and services.